RH
3 6 8 7 7 25 52 42 22 30 37 42 56 74 85 78 71 70 66 59 55 54 51 57 75 89 92 87 76 63 54 49 48 50 52 56 52 41 37 37 44 56 54 45 39 32 23 16 16 18 15 10 8 7 5 6 8 8 9 10 10 11 10 9 8 10 11 13 16 22 30 37 43 46 49 56 60 54 44 35 28 21 19 19 21 26
5 7 5 6 21 49 64 48 43 52 43 47 66 78 84 73 62 63 64 65 58 51 52 54 64 79 82 81 79 70 60 54 53 53 49 52 55 43 35 37 39 45 49 46 39 36 30 19 15 17 19 15 10 8 7 6 6 7 8 8 9 9 9 8 7 9 9 11 14 15 21 30 38 42 44 47 50 51 42 32 28 24 24 24 23 23
13 10 8 27 44 39 34 31 37 42 38 56 73 73 74 68 63 63 56 57 53 45 52 59 60 67 72 76 78 73 71 67 61 58 51 52 60 54 41 38 38 38 42 46 43 39 35 25 16 14 17 17 11 7 7 6 5 6 7 6 8 8 7 7 6 7 8 9 12 13 15 20 29 37 41 42 42 44 40 35 33 31 29 27 22 21
32 37 30 37 33 14 13 21 19 18 29 46 54 58 65 66 72 72 55 54 63 56 52 54 51 59 75 83 82 77 73 71 71 74 65 56 59 61 52 42 37 36 36 41 45 43 40 31 19 15 15 15 16 12 8 7 6 5 6 6 6 7 7 6 6 6 6 7 7 11 14 15 19 26 31 34 35 37 36 34 33 30 27 23 19 20
41 44 28 19 10 5 9 11 7 9 22 36 43 48 57 71 80 75 59 55 67 66 52 51 56 67 80 83 82 82 77 72 77 85 78 63 54 51 53 50 42 37 34 34 41 44 45 40 27 17 15 13 16 15 8 7 7 5 5 5 5 6 6 5 5 5 4 5 5 6 10 10 12 16 20 22 24 27 28 27 25 22 20 16 14 14
35 25 11 8 5 5 6 6 5 6 13 28 40 40 45 63 69 67 66 53 53 66 64 60 68 75 79 79 78 78 83 81 76 81 79 66 59 55 50 49 48 45 40 35 38 42 46 52 42 24 16 15 14 14 12 8 6 6 5 4 4 5 5 5 4 5 4 4 4 5 5 5 7 9 11 13 14 16 17 17 17 15 14 11 9 7
18 11 6 7 7 4 3 4 5 5 10 24 40 46 46 54 59 63 60 44 51 81 86 74 75 74 64 68 79 83 91 90 80 86 85 68 63 63 53 48 52 54 47 38 36 41 45 53 54 35 20 19 16 13 13 10 7 6 5 4 4 4 5 5 4 4 4 4 4 5 5 4 4 5 6 7 7 9 9 10 11 10 9 6 5 4
15 10 7 6 6 5 10 17 17 6 6 24 41 49 55 59 59 55 43 36 52 77 86 86 89 82 61 58 73 84 92 94 89 93 91 77 66 63 59 56 57 56 50 43 38 40 42 47 52 42 27 24 25 24 20 14 9 7 6 5 4 4 4 4 4 4 3 4 5 5 6 6 5 4 5 5 4 5 5 6 6 6 6 5 5 5
34 23 11 4 9 23 37 36 23 5 9 35 40 32 44 49 44 44 42 40 40 53 84 95 80 75 75 68 67 73 81 88 91 88 86 85 80 73 69 63 57 53 53 57 54 45 41 44 50 47 34 25 27 30 29 23 15 9 8 7 5 3 4 4 4 4 4 3 3 5 5 6 7 6 6 6 6 6 5 5 5 5 5 6 7 7
23 19 9 3 13 31 38 24 9 4 11 27 23 12 19 24 24 29 33 32 26 41 77 79 54 58 71 65 64 73 79 83 86 82 79 82 87 89 82 68 56 50 52 60 62 57 50 46 51 53 41 30 31 35 32 28 24 17 11 8 6 5 4 3 3 3 4 4 3 4 5 5 7 8 8 8 8 8 8 8 8 8 8 8 9 9
12 11 7 7 9 11 13 10 8 8 8 11 10 9 14 23 31 26 20 18 15 23 43 49 52 68 68 56 63 75 77 78 75 73 75 72 76 87 87 78 64 51 51 56 56 60 60 50 49 57 52 40 41 42 34 27 24 23 19 9 6 6 4 3 4 3 3 4 4 3 4 4 5 6 8 8 9 10 10 10 10 10 11 10 11 11
25 8 6 8 6 7 8 9 9 6 7 7 6 11 29 52 61 52 41 24 9 8 16 27 49 67 69 64 69 71 68 67 60 57 62 62 68 76 80 86 78 60 58 60 54 55 61 56 47 51 56 48 42 42 43 37 28 29 31 21 8 6 7 5 3 4 4 3 4 4 4 4 4 5 6 7 8 9 10 12 12 12 12 12 12 12
37 19 22 19 8 7 6 8 16 16 14 12 13 26 49 71 74 72 73 59 38 25 17 24 40 49 57 65 67 68 66 61 57 54 52 57 71 78 78 85 82 73 71 69 62 55 60 66 54 46 53 54 44 41 46 44 35 34 38 32 17 6 6 8 5 4 4 3 4 4 4 4 4 5 5 6 7 9 10 11 13 13 14 14 14 14
48 42 48 39 20 7 5 24 47 53 47 38 42 58 69 73 71 72 78 75 66 55 44 51 58 48 49 60 59 56 56 55 56 56 51 57 74 81 85 89 83 82 86 82 74 62 57 63 61 51 51 52 47 45 46 41 39 42 40 35 29 15 7 7 7 6 5 5 5 4 4 4 5 5 5 6 6 7 10 11 13 15 15 15 15 15
52 61 65 50 32 12 6 24 42 53 59 55 56 67 71 69 70 74 76 73 70 69 67 71 72 58 54 65 62 52 56 63 61 54 51 64 81 84 87 91 86 87 93 92 84 72 61 57 60 56 50 51 51 49 45 35 34 45 44 38 34 25 14 9 8 8 7 6 5 5 5 5 5 5 5 6 7 7 8 10 12 14 15 16 16 15
50 65 63 42 30 16 8 11 15 26 47 59 57 56 59 62 63 62 63 66 66 66 66 67 70 68 66 70 67 57 62 70 69 64 62 68 78 82 83 87 89 88 92 97 93 87 77 63 62 60 51 52 53 48 46 38 35 43 43 40 38 31 24 14 8 9 8 8 7 5 6 5 5 6 5 5 6 6 7 7 9 11 12 14 15 15
53 62 58 48 44 25 9 10 11 15 35 59 65 60 60 61 58 55 56 64 67 65 65 62 60 64 70 71 65 59 62 63 64 72 77 74 70 71 75 80 89 90 88 90 90 93 93 78 67 62 53 51 49 48 50 46 44 46 40 38 39 38 33 19 9 9 9 8 9 6 6 6 6 5 6 6 6 6 6 6 7 8 9 10 12 13
50 59 61 59 59 34 6 9 13 4 19 56 71 66 63 65 69 66 56 57 63 64 66 64 60 62 67 69 66 66 66 63 62 66 72 74 69 66 68 71 81 85 81 79 77 82 91 88 78 71 64 56 45 46 51 44 41 42 40 38 36 35 36 24 11 12 12 10 10 9 7 6 6 6 5 6 6 6 6 6 7 7 7 8 8 9
26 54 67 54 57 44 8 2 11 2 12 42 48 46 60 75 84 78 62 61 64 62 64 64 62 64 64 64 68 71 68 67 68 65 62 64 63 64 66 65 68 73 73 74 74 76 83 91 92 89 83 68 54 59 62 50 42 41 39 37 35 35 35 30 22 17 16 15 12 12 11 7 6 6 6 6 6 6 6 6 6 6 7 7 7 8
20 51 68 56 57 51 22 12 25 29 33 36 26 33 57 67 69 72 71 75 74 67 68 69 65 67 68 65 66 68 64 62 69 70 66 62 60 60 61 60 64 75 80 76 72 72 78 89 97 99 94 81 71 72 67 52 50 55 47 32 33 38 35 38 39 28 19 17 16 18 17 11 7 5 5 7 7 7 7 7 6 6 6 6 6 7
21 31 54 70 61 49 48 47 47 60 71 64 51 51 57 59 64 71 73 78 81 75 73 76 75 73 71 66 65 65 60 56 62 67 64 59 58 59 58 55 58 67 75 75 72 69 71 84 96 99 98 93 86 81 72 54 50 68 70 50 48 50 35 33 44 42 33 25 24 26 18 11 13 10 6 6 7 8 9 9 9 10 9 8 8 7
17 16 36 65 59 53 69 65 53 66 81 81 81 80 76 75 73 66 67 80 86 78 71 76 77 69 61 56 55 54 51 47 50 55 56 52 52 58 58 53 52 52 58 68 71 66 67 79 91 97 98 96 93 92 85 66 53 67 75 63 63 62 38 24 33 47 52 46 41 37 24 21 24 16 9 7 7 8 9 11 12 12 14 13 11 10
15 13 16 35 47 56 62 49 42 56 65 62 63 65 65 68 71 71 80 91 85 70 65 73 77 69 62 59 56 56 58 55 48 45 47 48 51 61 63 57 57 56 55 62 67 68 71 73 78 87 91 89 93 98 93 80 72 73 69 62 64 61 47 39 41 44 46 44 44 40 34 37 38 30 22 14 8 7 6 7 10 10 11 13 12 11
13 15 12 17 26 37 42 36 30 28 29 26 25 40 54 57 67 80 86 84 76 66 62 72 81 74 64 63 62 66 73 77 72 62 57 56 61 75 79 70 67 65 59 63 73 80 82 77 72 76 83 87 92 99 97 89 82 74 71 76 74 62 59 70 75 63 44 35 36 39 40 40 40 44 41 26 15 18 16 7 6 8 7 7 8 9
19 16 14 10 13 35 55 63 59 41 25 19 27 58 73 56 50 64 70 62 59 61 60 69 82 72 59 60 60 60 62 66 72 73 69 63 60 73 85 79 72 69 65 71 85 87 83 83 83 78 80 87 91 95 98 98 92 81 80 89 86 76 73 79 86 80 61 46 41 44 48 45 45 50 47 35 24 25 32 22 7 6 7 5 7 6
20 17 15 10 19 55 75 75 83 80 63 54 60 75 76 59 49 53 57 50 49 56 55 56 66 64 63 69 66 63 62 56 59 63 65 62 57 65 79 79 74 71 70 79 89 83 72 75 83 82 79 80 80 83 90 97 100 94 88 89 91 89 77 68 75 75 61 52 51 58 68 73 76 68 56 57 49 38 48 48 25 11 6 5 8 8
13 11 11 9 16 45 61 62 77 86 78 77 83 83 82 84 74 50 38 38 44 54 52 48 54 56 63 71 65 62 64 61 62 63 61 58 55 61 69 70 72 72 70 75 81 78 71 71 75 75 71 66 63 65 74 86 97 97 93 92 95 94 77 60 63 64 53 46 50 65 81 87 89 71 56 74 81 64 69 79 65 43 16 2 6 7
12 7 11 12 7 14 24 35 54 62 59 60 66 69 74 83 75 45 30 35 42 48 51 50 51 50 53 57 51 47 48 49 55 62 62 57 54 57 58 55 60 68 71 76 81 81 77 73 72 68 63 59 55 55 59 68 81 90 96 98 99 101 93 73 61 62 62 55 48 55 69 78 80 64 52 70 78 68 76 86 83 73 45 15 8 12
13 9 11 11 18 33 30 20 24 27 25 26 28 29 31 35 36 24 17 26 34 42 50 52 50 48 47 47 46 45 43 40 42 48 54 56 54 55 52 47 48 58 69 78 84 84 77 69 68 66 62 58 54 53 52 52 59 72 87 97 98 99 102 90 70 64 68 65 55 53 56 64 69 59 51 58 58 65 83 83 75 83 80 52 32 34
14 14 12 8 31 66 56 21 11 10 8 8 7 7 7 4 7 8 8 16 22 25 35 46 49 45 40 39 42 43 41 38 36 37 43 50 52 51 48 44 42 46 58 69 77 81 76 67 63 60 59 57 51 48 47 43 43 51 66 85 93 96 101 99 85 75 74 72 68 65 61 62 67 63 59 56 53 66 82 76 68 81 93 84 62 48
19 11 12 10 16 32 27 9 8 8 6 9 6 4 7 3 2 3 1 5 10 10 15 27 35 36 33 32 33 33 33 31 29 32 37 41 45 45 42 40 37 38 49 63 74 79 75 67 62 57 54 51 47 44 43 40 37 38 46 63 78 86 90 94 92 87 87 84 78 74 69 67 69 69 68 63 57 59 62 61 69 77 80 83 79 66
45 19 12 13 6 11 20 21 23 16 4 6 7 3 3 2 4 9 6 4 13 21 23 25 30 32 30 29 28 26 27 27 26 30 34 34 39 42 38 34 33 32 39 56 74 81 77 71 66 62 56 50 46 44 42 40 37 35 35 42 57 69 71 76 82 83 86 89 86 81 77 75 73 70 68 66 63 58 52 56 72 81 74 66 68 75
74 35 14 10 10 33 59 63 65 53 24 9 10 12 13 8 3 6 6 5 14 26 32 33 33 30 26 25 27 24 23 27 29 32 34 34 37 40 38 33 31 30 30 39 57 73 81 79 73 70 65 55 50 47 43 42 40 36 32 31 38 49 54 59 68 72 75 81 86 87 85 84 84 78 68 61 61 62 59 59 67 79 79 63 52 57
85 47 19 13 19 51 84 87 82 71 43 23 21 24 25 20 13 10 11 15 23 30 32 30 25 20 19 20 19 15 14 18 24 31 37 39 38 38 38 34 33 36 33 32 43 65 82 85 78 75 72 62 55 52 48 46 43 38 35 32 30 34 41 50 58 60 60 70 84 94 95 94 94 92 81 65 57 59 64 66 67 72 77 70 62 63
91 59 21 6 11 43 81 90 79 66 45 28 26 28 25 23 23 22 19 21 25 24 21 20 18 19 23 23 17 12 9 8 16 29 38 40 37 35 37 38 40 44 46 46 51 66 82 89 83 77 75 69 62 56 52 50 47 40 35 31 28 27 30 39 49 50 46 54 74 88 93 96 99 99 95 83 67 57 59 67 72 72 75 76 80 86
87 75 47 23 10 22 53 71 72 69 56 40 35 33 27 23 24 23 18 18 23 22 14 12 17 21 25 27 23 18 12 7 11 22 32 37 36 34 37 44 51 56 61 65 66 67 79 94 92 81 75 72 65 60 56 51 47 44 39 36 35 31 28 30 38 42 39 46 67 86 93 97 100 100 99 96 87 73 65 68 73 73 74 78 82 87
73 69 68 57 30 15 29 52 66 73 70 56 42 34 28 23 21 20 19 17 21 24 17 13 17 20 25 33 30 21 16 12 11 17 26 32 35 35 38 47 57 62 65 70 71 68 76 93 95 84 78 75 69 62 58 51 48 52 57 60 60 56 48 37 33 36 36 38 59 87 99 99 99 100 100 100 99 92 80 73 75 76 77 79 80 81
83 67 60 60 55 50 57 67 71 78 81 70 56 50 48 42 33 28 25 22 22 21 16 14 14 14 27 43 41 32 29 28 26 28 30 31 35 37 37 43 54 62 68 73 72 69 80 96 97 86 80 78 72 65 57 50 48 52 61 68 72 75 71 59 52 61 68 61 63 81 96 100 100 100 100 100 100 99 91 81 78 79 81 84 83 79
99 86 61 47 55 72 85 81 70 70 74 67 61 59 54 48 46 40 28 22 26 27 20 15 14 16 30 44 44 40 39 35 36 37 34 34 40 40 38 44 55 66 78 86 82 78 85 96 96 92 90 86 80 70 61 54 49 46 49 53 54 56 56 49 50 71 88 85 75 74 83 93 97 97 98 100 98 96 97 93 88 84 81 82 84 80
96 97 81 55 37 37 55 72 81 83 69 48 42 45 43 42 43 37 26 20 26 32 31 28 27 31 40 42 40 42 41 35 37 38 35 38 46 46 42 44 54 68 80 90 94 91 90 93 94 94 92 87 80 71 62 58 53 46 44 42 37 35 35 34 35 45 56 61 58 56 62 72 82 86 89 88 83 79 82 85 88 90 86 82 83 79
93 92 89 78 53 29 21 29 51 70 64 44 39 41 42 43 37 30 30 28 25 29 34 34 32 32 37 39 36 34 33 30 33 38 39 42 49 55 55 50 52 61 69 82 95 98 97 98 96 90 82 75 71 67 61 59 57 52 47 43 39 39 43 46 43 37 36 41 43 46 49 54 61 70 74 71 64 60 59 60 65 77 83 84 85 80
97 91 89 85 70 52 33 21 34 54 48 37 43 45 42 44 40 33 35 31 23 24 29 31 31 29 33 39 34 26 25 26 31 40 47 48 51 57 62 61 60 60 62 74 89 94 97 98 91 82 78 73 69 67 65 62 60 55 50 46 43 42 47 55 57 53 51 50 44 41 44 45 48 54 57 57 55 52 50 48 46 53 63 71 77 81
95 96 101 95 72 48 33 32 59 80 61 41 50 54 46 47 45 38 34 28 20 20 22 25 27 24 24 28 25 22 28 32 33 36 39 41 45 49 53 58 64 63 60 65 71 79 92 99 91 82 81 78 73 71 68 65 62 57 53 49 45 42 42 46 53 57 59 54 44 38 40 42 44 46 47 49 50 48 47 45 42 42 46 50 56 64
90 92 98 102 89 72 57 49 59 70 60 50 54 54 48 50 50 42 34 25 19 20 20 19 19 19 20 18 15 23 36 36 30 28 27 28 34 41 47 54 62 65 63 61 62 71 89 99 93 84 80 77 75 72 69 67 64 60 57 52 48 44 41 38 39 41 43 42 38 38 40 41 42 44 45 45 46 45 44 44 42 40 39 40 42 45
84 84 85 90 89 85 81 67 52 45 44 47 50 49 48 50 46 37 28 21 19 21 22 18 15 18 22 17 12 20 32 31 23 22 25 27 30 35 41 48 56 64 68 67 70 81 93 96 89 82 78 76 74 73 71 68 65 62 59 55 49 46 43 40 38 37 37 38 39 39 40 41 42 43 44 44 44 44 44 44 43 41 39 38 38 38
78 75 78 83 81 78 76 69 59 53 53 55 56 56 55 52 43 31 23 18 16 16 18 18 16 16 18 17 14 17 24 27 25 22 23 27 33 37 41 45 50 60 69 73 77 84 91 93 89 82 78 76 76 74 71 68 66 64 61 56 51 48 45 41 39 38 38 39 41 41 42 42 43 43 44 45 45 45 45 45 45 44 42 41 40 39
78 73 77 80 80 79 75 70 67 65 60 58 59 58 55 49 40 27 18 16 14 13 14 14 12 12 13 15 17 19 20 21 25 27 27 31 37 42 45 46 48 55 68 80 84 84 85 87 86 81 78 79 81 79 74 70 68 65 62 58 54 50 47 44 41 39 39 40 41 43 44 45 46 47 47 47 48 49 49 49 48 47 46 45 44 43
77 76 80 79 77 74 67 63 66 67 62 59 60 59 53 43 31 19 12 12 13 13 13 13 12 12 13 13 16 20 19 16 22 31 35 39 44 49 53 53 51 52 63 79 91 94 91 88 85 82 80 82 85 84 80 76 72 68 63 59 55 51 48 45 42 40 40 41 42 43 45 46 47 48 49 50 51 52 53 54 54 54 52 51 50 50
80 82 84 82 78 72 65 61 62 62 60 56 54 55 50 38 26 16 10 10 13 13 14 14 14 13 13 13 14 16 16 16 22 33 40 45 50 55 58 62 63 62 65 75 87 96 99 96 92 87 85 84 86 86 84 82 79 74 66 57 54 52 49 46 44 42 42 43 44 46 47 48 49 50 50 52 53 53 55 56 56 57 56 55 54 54
82 85 83 79 78 75 72 68 64 62 61 58 55 54 49 36 23 15 11 13 15 15 13 13 12 12 13 14 13 13 16 19 25 34 40 45 50 55 57 61 66 71 75 79 84 90 96 99 98 95 92 90 89 87 86 85 83 79 70 59 53 51 50 49 48 47 47 48 49 51 52 52 52 53 53 53 53 53 54 56 56 56 56 55 54 53
76 79 75 71 73 75 72 67 64 65 68 65 60 58 54 40 22 13 14 16 16 14 12 11 11 10 12 13 13 14 18 21 24 30 36 39 42 47 52 55 60 66 73 79 83 87 91 95 98 100 99 98 95 92 88 86 83 79 71 62 55 52 51 53 53 52 51 51 51 52 54 54 54 55 55 54 53 52 52 52 52 52 51 50 48 46
Wind_Speed
17 15 14 15 14 10 10 13 13 14 18 19 14 6 8 15 12 10 11 12 11 11 11 8 7 4 2 4 5 4 5 7 7 8 9 9 9 8 8 8 8 7 8 7 6 5 4 3 3 2 2 1 2 2 1 1 2 3 4 4 4 4 4 5 5 6 6 6 6 6 7 7 7 8 8 8 9 10 11 13 13 13 13 12 12 12
12 13 13 12 9 11 16 18 15 15 19 18 15 9 6 14 13 11 12 11 12 11 9 8 7 5 2 4 5 4 4 6 7 8 9 10 10 9 9 9 8 8 8 8 7 6 5 4 3 3 2 2 2 2 2 1 1 2 3 3 4 4 4 5 5 6 7 7 7 7 7 8 8 9 9 9 9 10 12 13 13 13 12 12 12 11
1 6 7 7 11 19 23 21 17 18 20 18 15 6 2 11 14 13 14 12 14 12 8 9 8 6 5 5 7 6 7 7 9 11 12 12 12 11 10 10 10 9 9 9 8 7 6 5 4 4 3 2 2 2 2 2 1 1 2 3 3 4 4 4 5 6 7 7 7 8 8 9 9 9 10 10 9 10 11 12 12 12 12 11 12 12
4 7 9 11 17 20 19 19 18 18 19 20 15 7 6 10 13 11 12 10 12 12 9 10 10 8 8 7 9 11 11 10 11 14 14 13 13 13 12 11 11 10 10 9 9 8 7 6 5 4 4 3 3 3 3 3 2 1 2 2 3 3 4 4 5 6 7 7 7 8 8 9 10 10 10 10 10 10 11 11 11 11 10 11 12 12
6 15 15 11 13 13 15 20 19 17 18 19 17 12 14 9 5 11 18 14 11 12 11 12 10 8 10 10 10 11 13 13 13 15 15 14 14 14 13 13 12 12 11 11 10 10 9 7 6 5 4 4 3 4 3 3 3 3 2 2 2 3 4 4 5 6 7 7 6 7 7 8 9 9 9 9 9 10 10 10 10 10 10 11 12 13
5 12 10 7 8 10 13 17 17 18 19 15 11 11 15 17 12 6 19 18 15 11 11 14 12 9 10 12 12 13 14 15 15 17 17 16 15 15 14 14 13 13 13 12 11 11 11 9 8 6 5 4 4 4 4 3 4 4 4 2 2 3 4 4 5 6 6 6 6 6 6 7 7 8 9 9 9 9 9 9 10 11 12 13 13 13
6 6 7 7 7 7 8 10 13 17 18 13 6 5 9 15 20 15 18 16 12 11 10 12 14 13 13 13 13 14 14 16 18 19 20 18 16 16 15 14 14 14 14 14 13 12 12 11 10 8 6 5 5 4 4 4 4 5 5 4 3 3 4 4 5 6 6 5 5 5 5 6 6 7 8 9 9 9 9 10 10 11 12 13 13 12
9 6 7 7 6 4 2 5 11 15 15 10 11 16 15 19 26 30 29 16 11 15 11 9 11 14 15 15 15 14 15 15 16 18 19 18 17 18 17 17 16 15 15 15 14 14 13 13 12 11 8 7 6 5 5 5 5 6 6 6 5 4 5 5 5 6 6 5 5 4 4 5 5 5 6 7 8 9 9 10 10 10 11 11 11 10
13 10 10 9 6 3 3 9 12 11 17 15 21 27 26 28 32 35 33 21 15 16 11 11 13 14 15 16 19 18 16 13 11 15 20 20 20 21 20 19 17 16 16 16 15 15 14 14 14 13 10 9 8 7 7 6 6 6 7 7 7 6 6 6 6 6 6 6 5 5 4 4 4 5 5 5 7 8 8 8 9 9 9 9 9 9
9 9 10 10 9 6 6 13 9 7 18 22 22 21 20 25 28 28 29 26 22 18 15 16 17 16 19 19 20 20 17 16 12 13 16 18 20 21 20 20 18 18 18 17 16 16 15 15 15 15 13 10 10 10 9 8 7 7 7 8 8 7 7 7 7 7 7 7 6 6 5 5 5 5 5 5 5 6 7 7 7 7 7 7 7 7
6 9 10 9 12 10 6 6 3 5 13 15 14 13 11 13 15 18 21 21 24 26 21 17 16 17 20 21 19 18 18 19 17 14 14 15 18 22 21 20 19 18 18 18 18 17 17 17 16 15 15 12 12 12 11 9 8 8 8 9 9 9 9 8 8 8 8 7 7 7 7 6 6 6 6 5 5 5 5 5 5 6 6 6 6 6
13 9 10 9 13 12 7 6 5 6 8 9 10 9 4 11 16 12 11 14 18 23 22 17 17 19 21 21 18 17 19 19 20 20 18 17 17 21 23 21 20 19 19 19 19 19 18 18 17 16 16 15 14 14 12 11 10 9 9 10 9 9 9 9 9 9 8 8 8 8 8 8 7 7 7 6 6 6 6 6 6 6 6 6 6 6
18 9 8 12 12 11 9 7 5 7 6 5 6 3 2 6 13 8 4 10 10 11 14 15 18 22 24 22 19 19 20 19 21 21 20 19 17 18 23 24 23 21 19 20 21 20 20 18 17 17 17 16 16 15 13 12 12 11 11 11 10 10 9 9 10 10 9 9 9 9 8 9 8 8 8 7 7 7 6 7 7 7 7 6 6 6
15 18 19 15 9 11 9 6 1 7 6 9 7 1 3 5 10 7 4 6 9 8 8 11 17 24 25 22 20 23 23 21 21 21 19 19 19 19 21 23 24 23 22 22 23 23 22 21 19 17 17 18 17 16 15 14 14 13 12 12 11 11 10 10 10 10 10 10 9 9 9 9 9 9 9 9 8 8 8 8 8 8 8 7 7 7
9 15 18 10 3 8 12 11 10 11 6 7 7 4 2 10 9 7 7 6 7 7 6 10 18 25 26 23 23 25 23 20 19 21 21 19 17 18 19 19 20 23 24 24 24 24 24 22 22 20 19 19 18 18 18 17 16 15 14 14 13 13 12 11 10 10 11 10 10 10 10 10 10 10 10 10 9 9 9 9 8 8 8 8 8 9
7 9 15 12 6 8 12 10 10 11 12 4 5 2 4 10 7 8 10 9 10 9 9 15 22 26 26 25 26 26 23 19 16 18 22 21 17 16 18 18 17 17 20 21 22 24 26 24 23 23 20 19 19 19 19 18 17 17 16 16 15 14 13 12 11 11 11 11 11 11 11 10 10 10 10 10 10 10 9 9 9 9 9 9 9 9
6 10 19 16 12 10 10 9 9 9 9 10 4 5 6 6 7 12 13 14 14 9 9 19 24 22 21 23 24 24 23 22 19 18 20 23 24 20 17 17 16 15 15 16 18 22 27 28 25 24 23 21 20 20 19 19 19 18 18 18 17 16 15 14 13 13 12 12 12 12 11 11 11 11 11 10 10 10 9 9 9 9 9 9 9 9
10 7 15 15 9 7 6 8 8 7 8 13 9 10 9 4 7 13 14 12 12 7 6 15 22 20 21 23 23 22 21 21 23 24 21 22 24 25 21 16 13 13 13 15 16 18 25 30 28 25 23 22 22 20 19 20 20 21 21 20 18 17 17 15 15 14 14 14 13 13 13 12 12 12 11 11 11 10 10 10 10 10 10 10 10 9
9 3 7 8 6 6 4 6 7 4 7 14 10 6 8 8 5 7 6 5 6 7 6 9 19 23 24 25 24 23 20 19 21 25 25 23 22 23 24 20 15 13 13 15 16 15 19 26 29 27 24 22 21 20 21 22 21 21 22 21 20 19 18 17 17 16 16 16 15 15 14 14 13 13 12 12 11 12 11 11 11 11 10 10 10 10
6 8 3 6 3 4 3 1 1 3 6 14 12 5 6 9 6 5 6 7 7 9 9 9 17 24 24 26 27 26 25 21 20 21 23 24 22 21 22 23 20 14 11 13 15 14 13 17 23 27 26 25 24 23 24 24 21 21 22 21 21 21 20 19 19 18 18 18 17 16 16 15 15 14 14 14 13 13 13 12 12 12 12 11 11 11
10 12 9 9 6 5 2 3 2 1 7 11 10 7 6 7 9 8 6 9 9 6 8 11 16 21 23 26 28 27 27 24 21 22 23 23 23 21 21 24 24 20 14 13 14 15 13 13 16 21 24 26 28 27 26 24 22 22 23 22 21 22 22 22 21 19 19 19 18 18 17 17 17 16 16 16 15 15 14 14 14 14 13 13 13 13
15 12 13 11 1 4 11 14 7 8 10 8 6 8 12 17 19 17 12 10 8 6 11 13 15 22 25 26 27 27 28 28 26 25 25 25 23 23 23 24 26 26 22 16 15 17 17 15 15 16 18 23 27 29 27 25 25 24 23 23 23 23 22 22 22 21 21 20 18 19 19 18 18 18 17 17 17 17 16 16 16 15 15 15 14 14
14 13 14 14 10 11 17 13 11 16 14 11 9 8 14 18 16 14 12 11 14 16 18 16 16 24 26 26 26 24 24 26 27 26 26 27 26 23 24 25 24 25 23 18 16 17 18 17 16 15 15 17 22 28 30 28 26 26 27 27 25 24 23 23 24 24 23 21 20 21 21 20 19 19 19 19 18 18 18 18 17 16 16 15 15 15
12 14 17 17 17 18 15 11 12 17 16 15 13 9 11 13 11 11 11 12 13 17 19 18 18 26 27 25 26 23 21 20 21 22 23 26 26 22 20 21 22 22 22 20 16 16 17 17 16 17 16 14 16 24 32 31 28 27 29 29 26 24 24 24 24 22 20 20 21 22 23 22 20 19 20 20 20 20 20 19 19 18 18 17 16 16
10 14 17 19 16 8 8 12 13 12 12 12 8 5 10 16 17 15 14 14 14 14 17 20 22 27 26 24 25 25 25 23 22 22 21 22 25 23 18 17 19 20 20 18 15 15 16 17 15 15 15 13 13 17 26 31 32 31 30 28 25 23 23 22 23 22 20 19 21 23 24 24 23 21 21 21 21 21 21 21 21 20 19 19 18 18
14 17 16 17 14 7 10 16 14 11 9 6 3 4 10 15 17 19 18 16 15 15 19 21 23 28 26 24 27 26 25 25 25 24 23 22 24 22 18 17 19 20 19 18 16 16 17 16 14 13 14 14 14 15 17 23 30 34 34 31 26 24 25 25 26 26 24 23 23 23 23 24 22 20 20 20 21 22 23 23 22 22 22 21 20 20
19 19 15 14 15 14 19 23 21 17 12 7 6 7 10 12 13 18 20 19 19 21 23 23 24 28 26 25 28 28 25 24 23 22 24 26 26 24 20 18 20 21 22 20 18 19 20 17 13 14 16 16 16 17 17 18 22 29 34 34 31 29 30 31 30 30 29 27 25 23 23 25 23 20 21 22 22 23 23 22 22 23 24 24 23 21
20 19 16 17 16 16 20 21 20 20 18 15 14 14 16 16 14 17 19 21 23 25 26 26 25 27 27 27 29 31 30 28 27 25 25 25 27 28 24 21 21 23 23 21 18 19 21 20 17 16 17 18 18 20 20 18 18 22 27 31 33 34 35 35 34 33 32 30 27 26 26 27 27 24 23 24 25 25 24 24 24 25 26 26 24 22
20 19 18 18 15 14 20 23 22 23 22 20 21 20 22 22 21 21 21 23 26 26 26 27 25 27 29 29 29 31 31 30 30 29 27 24 24 27 27 25 24 25 24 23 23 22 22 23 23 21 20 21 21 22 21 20 19 21 22 25 29 34 37 38 38 37 35 32 30 29 28 29 29 27 25 25 26 26 26 26 26 27 27 25 24 23
19 19 21 21 16 12 16 21 23 24 22 22 23 22 22 24 25 24 25 26 27 26 27 27 26 27 29 29 29 30 29 28 27 27 28 27 25 25 27 27 27 28 26 25 26 28 27 25 25 25 23 24 24 24 25 22 20 20 20 19 22 27 32 35 38 39 38 35 32 30 30 30 30 29 27 27 27 28 28 27 27 28 27 24 24 25
21 21 22 23 20 16 15 17 19 21 20 21 23 21 21 23 23 23 27 27 25 27 28 28 27 27 27 29 30 30 29 29 27 25 26 28 27 25 26 27 28 30 29 26 25 26 27 26 27 26 24 26 26 26 27 25 22 21 21 21 21 21 24 28 34 38 39 38 35 32 31 31 32 31 30 30 30 31 31 30 30 30 29 26 25 26
19 23 23 20 18 15 15 15 17 20 21 20 19 20 21 22 21 22 25 23 22 25 26 26 26 24 25 27 29 29 28 27 27 27 26 25 25 24 25 28 30 31 31 27 24 25 27 27 26 26 24 24 26 26 26 26 25 23 23 23 24 23 22 23 26 31 35 37 37 35 33 33 33 33 33 33 33 34 33 32 33 32 29 28 28 28
13 19 23 20 15 9 9 10 12 15 17 17 17 19 20 21 21 22 23 21 21 24 23 23 23 21 23 25 26 27 26 25 26 26 25 24 24 23 24 27 30 31 32 32 30 29 28 26 23 22 22 22 24 25 24 24 23 23 22 23 25 27 26 24 23 23 26 32 37 37 36 35 35 36 36 36 35 36 35 34 34 33 31 30 30 31
14 16 22 22 18 11 5 10 12 11 12 15 17 17 18 19 19 19 19 20 21 22 22 22 22 21 22 23 24 24 25 24 25 24 23 23 23 23 25 27 30 31 32 34 35 32 28 26 23 21 20 20 21 22 22 21 20 20 21 22 24 27 28 27 26 24 23 27 33 38 38 38 38 38 38 38 38 37 36 35 35 35 34 32 33 33
13 14 20 24 20 14 10 11 14 12 14 17 16 17 19 20 18 17 18 20 20 20 21 21 22 22 22 23 23 23 23 23 23 22 22 22 23 24 25 27 29 32 33 34 34 31 29 27 26 23 20 19 19 20 19 19 17 17 18 19 21 24 27 28 29 28 26 27 30 38 43 41 40 41 39 39 40 39 37 37 37 37 37 36 36 34
12 11 15 20 20 18 17 14 12 12 16 18 17 18 20 19 18 17 19 20 19 19 21 22 21 21 23 23 23 22 21 21 22 22 23 23 24 25 27 27 28 31 35 35 34 32 31 31 31 28 23 20 19 19 18 16 15 14 15 16 17 19 22 25 27 28 28 27 26 33 44 45 42 41 39 39 40 40 40 40 38 38 38 38 38 37
15 14 14 15 17 20 21 18 14 13 15 17 17 17 17 18 20 20 20 21 19 18 21 22 21 22 22 22 22 21 20 20 21 23 24 24 25 26 28 29 29 30 33 35 34 33 33 35 34 30 25 23 20 18 17 15 14 13 12 11 13 14 15 18 20 22 25 25 23 24 37 43 40 39 39 39 40 40 40 41 39 38 38 39 39 39
14 15 16 15 15 16 16 16 15 14 14 16 17 15 13 16 19 19 19 21 20 19 21 21 21 22 21 20 20 19 18 18 18 20 22 24 25 26 28 29 29 31 32 31 32 34 35 38 38 32 27 27 23 19 16 14 13 12 9 7 8 9 11 12 12 15 19 21 19 19 26 34 36 36 35 34 35 36 38 41 42 41 40 40 40 40
11 12 16 18 17 14 13 14 14 14 18 22 21 19 17 17 17 18 19 21 19 19 21 21 21 22 21 20 19 18 17 17 17 19 21 22 23 25 27 28 29 31 32 29 30 35 37 37 37 32 28 27 23 19 15 12 12 11 11 11 11 10 11 10 9 12 16 17 17 17 19 22 25 24 22 20 20 23 27 33 39 43 44 43 40 39
12 13 15 18 19 19 17 15 12 13 20 23 22 23 23 20 19 20 21 22 20 18 20 21 21 20 20 19 19 16 15 16 17 18 19 19 20 22 25 28 28 29 30 28 29 34 36 34 32 28 25 23 20 17 14 11 11 11 12 13 12 12 12 10 9 12 15 16 19 21 21 21 20 18 17 14 13 14 16 20 26 33 39 41 41 40
12 12 13 14 17 20 22 20 14 15 21 22 21 23 23 19 20 21 22 23 22 19 19 21 22 21 19 18 18 17 16 16 16 18 18 17 19 20 22 26 27 26 26 27 26 27 29 30 29 25 22 20 18 16 14 12 12 11 11 11 10 10 11 10 9 9 10 13 16 18 20 22 23 23 22 21 19 17 16 17 18 20 23 27 32 36
14 13 12 13 14 17 21 20 16 19 25 25 23 25 23 19 20 20 20 22 23 21 20 20 20 20 19 17 17 17 17 16 15 15 16 17 19 20 20 22 24 23 23 25 25 22 20 22 23 21 20 19 17 16 15 14 14 13 13 12 11 11 11 12 13 12 11 12 12 14 16 19 21 23 25 25 23 20 18 18 18 18 17 16 19 22
14 13 12 11 12 15 19 19 18 22 28 27 24 24 22 19 20 20 19 21 22 21 20 20 19 20 19 18 17 16 15 14 13 14 15 17 19 21 21 21 21 21 22 23 22 21 21 22 22 22 21 20 18 18 17 17 17 16 15 14 13 12 13 14 15 15 15 14 13 13 14 15 17 19 20 22 22 21 19 18 18 19 18 17 17 17
16 16 12 10 10 12 16 21 24 27 29 27 25 24 21 19 20 21 20 21 22 21 21 20 20 20 19 19 18 16 14 12 12 14 15 16 18 20 22 22 20 19 20 21 20 20 21 23 23 23 22 21 20 20 20 19 19 18 18 17 16 15 15 16 16 17 17 16 16 15 15 15 16 16 17 18 19 20 20 19 18 18 19 19 19 19
21 20 17 15 14 15 18 23 28 29 29 28 26 24 21 19 20 21 21 21 22 21 20 19 20 20 19 19 18 16 14 13 12 13 14 15 16 18 20 21 20 19 19 20 21 21 22 22 22 22 22 22 22 22 22 22 22 21 20 20 18 17 17 17 18 19 19 19 19 18 18 18 18 18 18 18 18 19 20 20 19 19 19 20 20 21
23 21 19 18 18 19 20 21 23 26 28 26 24 22 21 20 19 20 20 20 21 21 19 18 18 19 18 18 18 17 15 13 12 12 13 13 14 16 18 20 20 20 21 22 22 23 24 24 24 23 23 24 25 24 24 24 24 23 23 21 20 20 19 19 20 21 21 22 22 22 22 22 21 21 21 21 21 21 21 21 21 21 21 21 21 21
22 20 19 19 20 21 23 22 21 24 27 27 24 22 21 21 19 19 19 19 20 20 20 19 18 17 17 17 16 16 15 14 11 11 11 12 13 14 16 19 20 20 22 23 25 26 27 28 28 28 28 28 28 27 26 26 25 25 24 23 22 21 21 21 21 22 23 24 24 25 25 25 24 24 24 24 24 24 24 24 23 23 23 23 22 22
21 18 18 20 21 23 25 24 24 25 27 27 25 22 22 22 21 20 20 19 20 20 19 19 19 17 17 17 16 15 15 14 12 11 10 12 13 14 14 16 19 21 23 24 25 26 28 29 30 30 31 31 31 30 28 27 26 26 25 24 23 22 22 22 22 23 24 24 25 26 27 27 27 26 26 26 26 26 26 26 26 25 25 25 24 24
19 16 17 19 22 23 23 23 25 26 27 27 26 24 23 23 21 21 20 19 19 19 19 18 17 17 16 16 15 15 14 14 13 11 11 11 13 14 14 15 17 20 22 23 25 25 26 27 28 28 29 29 30 30 29 28 28 28 27 26 25 24 23 22 22 23 24 25 26 27 27 28 28 27 27 27 27 27 27 27 27 27 26 26 26 26
20 19 19 19 19 20 21 21 23 25 25 27 27 25 24 23 22 21 20 19 18 19 18 17 16 16 15 15 15 14 13 13 12 11 11 12 12 13 14 13 14 16 19 21 22 24 25 26 28 28 28 28 28 28 29 29 29 28 27 26 25 25 24 22 22 22 23 24 25 26 26 26 27 27 27 27 28 28 28 28 28 27 27 27 27 27
23 23 22 20 19 20 21 21 21 22 23 25 25 24 23 23 22 20 19 18 19 18 17 16 16 15 14 14 14 14 12 11 11 11 12 12 13 13 13 13 12 13 14 16 17 19 21 23 26 28 29 29 28 28 28 28 28 27 26 25 25 24 23 22 21 21 21 22 23 23 23 24 24 24 25 26 26 27 28 28 28 28 28 28 27 27
Wind_Direction
235 236 232 225 217 208 220 219 214 226 227 227 227 221 276 272 267 279 282 282 282 286 297 316 322 314 147 176 185 178 181 173 183 190 192 205 210 219 229 229 229 228 228 226 225 223 202 194 216 231 232 213 161 138 134 114 88 85 81 69 57 45 47 61 71 84 95 103 110 116 119 122 125 130 137 140 140 142 142 143 144 144 145 145 146 151
233 231 228 223 204 202 216 209 203 220 219 223 229 208 263 274 264 268 272 274 276 280 289 288 296 306 258 218 214 199 199 193 191 195 199 207 211 218 227 225 227 231 229 228 228 226 219 203 206 222 230 232 200 155 151 168 125 96 92 85 78 64 56 68 75 83 95 105 113 120 125 126 128 135 144 154 157 153 151 149 150 150 151 151 151 155
242 263 226 202 217 223 221 212 210 222 216 219 232 190 107 283 282 284 275 276 280 278 280 272 266 273 268 247 242 247 249 232 207 202 203 203 208 215 220 222 223 229 230 230 230 227 226 219 207 214 224 237 231 192 169 179 181 126 104 95 92 87 78 80 85 89 93 101 112 121 129 134 135 141 149 160 163 158 156 155 155 157 156 155 154 157
84 277 234 207 232 234 226 225 224 228 226 226 230 156 122 281 297 297 272 269 281 276 263 258 254 256 269 263 258 261 257 246 220 210 210 205 204 210 215 219 224 226 228 229 231 231 228 225 217 213 220 229 239 231 199 184 196 178 128 110 104 101 100 99 100 99 96 99 106 113 125 135 138 145 152 157 159 157 158 159 159 159 158 155 154 155
168 233 233 221 241 237 223 230 228 226 226 226 231 195 170 207 285 301 281 261 254 266 262 259 260 257 266 267 260 252 242 239 227 216 216 214 208 209 211 212 219 226 227 227 228 232 228 223 220 213 215 222 232 246 235 207 199 190 179 144 126 122 117 119 117 112 109 106 106 109 116 125 131 140 149 150 151 155 158 160 159 157 156 153 153 155
213 236 236 227 242 234 227 234 228 224 220 215 237 235 201 189 177 266 283 261 238 251 261 258 263 258 257 261 256 250 239 233 232 221 216 220 214 211 213 210 215 222 225 227 224 229 230 223 219 214 211 218 228 244 250 236 217 200 194 179 154 148 135 133 133 129 128 124 121 118 116 120 123 129 138 140 142 147 150 151 153 154 152 150 151 155
245 245 226 226 244 238 236 240 232 224 214 200 201 235 240 209 181 194 243 248 232 237 253 256 260 259 250 248 248 256 257 240 230 221 213 215 216 214 215 211 213 219 223 227 222 223 228 224 220 217 208 212 224 239 250 248 235 218 203 193 183 168 156 153 149 147 146 144 141 136 130 130 130 131 135 135 134 137 138 140 146 150 148 147 151 156
256 245 222 223 237 235 281 266 248 229 199 191 211 196 197 205 198 211 228 232 222 226 239 247 257 267 260 255 254 264 277 259 238 233 228 223 221 221 218 211 211 217 222 228 225 220 223 225 225 222 210 208 218 226 239 249 245 233 216 200 196 187 175 168 165 165 163 162 159 154 151 146 144 144 143 139 137 139 139 140 145 149 150 150 155 159
264 243 224 217 198 148 304 255 244 223 179 186 228 216 205 213 214 220 228 228 228 232 241 239 240 257 262 261 259 262 273 268 250 247 247 240 230 223 215 210 211 213 218 224 224 222 223 226 227 224 214 206 211 216 223 238 245 243 230 210 201 198 192 181 177 181 176 176 178 172 173 168 162 160 157 153 149 147 146 147 150 153 155 155 159 163
256 233 225 219 203 179 241 245 238 204 187 199 234 240 235 238 234 235 239 238 235 232 232 235 237 250 257 254 254 259 262 260 260 260 258 252 240 229 219 217 217 214 217 220 222 223 222 224 226 227 222 208 209 217 217 224 236 240 237 225 211 203 203 196 186 189 188 186 187 185 186 187 184 179 176 174 169 161 156 156 158 159 161 163 167 172
287 251 244 231 231 238 253 262 248 203 214 230 259 266 270 282 271 257 254 247 235 232 232 236 241 248 254 254 254 263 262 258 260 259 262 261 247 236 229 224 222 221 222 223 224 226 224 223 225 228 227 214 209 216 215 218 228 231 235 233 222 210 209 207 199 193 195 196 194 195 195 196 200 197 192 193 192 186 176 172 173 174 177 179 181 188
327 277 259 258 248 252 250 240 234 219 230 251 261 257 285 319 308 290 271 260 243 238 238 242 247 248 252 255 254 260 261 260 259 253 256 266 259 246 237 226 222 225 225 225 228 231 231 228 225 228 230 221 213 213 212 216 222 224 231 235 229 221 214 213 213 204 200 202 201 201 201 201 206 207 203 204 205 203 196 192 192 192 195 199 200 205
331 314 300 289 253 245 241 230 272 283 263 262 267 256 151 249 278 297 294 280 287 271 256 256 254 251 253 257 259 261 263 263 263 260 257 262 266 256 241 229 224 226 226 226 228 230 233 232 227 227 232 228 220 214 213 216 219 220 226 232 234 231 222 217 219 217 210 209 208 208 208 207 210 212 210 208 207 207 205 202 200 198 199 205 207 210
315 311 318 308 259 241 229 176 248 280 305 343 335 70 106 234 257 297 313 283 310 316 288 273 257 253 258 264 265 264 264 263 262 264 261 260 265 257 241 233 230 231 229 226 226 226 228 231 228 225 229 231 225 218 217 218 218 218 223 229 232 232 230 224 222 224 220 217 217 215 215 214 215 217 216 213 209 207 207 204 202 200 198 202 205 205
261 303 309 301 242 221 210 183 200 200 136 354 311 154 240 264 242 263 278 261 274 274 261 259 253 257 265 267 264 261 262 265 261 259 259 259 262 251 237 233 232 232 230 226 227 226 224 228 228 223 224 228 226 221 219 219 218 217 220 227 230 229 231 229 226 228 227 223 224 223 222 221 220 221 221 220 217 211 209 207 205 204 199 200 204 205
226 279 268 268 283 247 226 211 213 185 141 163 268 172 223 250 252 280 282 268 260 253 254 260 255 257 265 268 268 265 261 265 262 258 258 256 258 251 235 232 228 223 223 225 230 228 224 227 229 225 223 224 228 228 223 220 221 222 224 227 230 230 230 232 231 231 230 228 228 227 227 227 226 226 225 225 225 221 217 215 212 212 210 207 209 210
183 252 257 273 305 284 240 218 207 198 166 154 188 268 219 213 260 260 253 253 251 234 247 268 263 256 266 272 272 269 264 264 259 255 258 258 259 258 247 243 240 230 226 230 238 235 226 224 228 229 226 221 226 231 227 223 221 224 228 228 230 233 231 232 232 233 233 231 231 231 230 230 230 231 230 229 230 229 226 223 220 219 219 219 219 220
179 231 263 260 280 293 236 219 222 210 176 151 170 246 222 191 271 246 224 231 240 227 238 272 271 263 269 274 276 277 270 264 258 252 254 258 260 260 258 262 263 251 245 244 249 246 229 220 222 227 229 226 227 228 230 231 226 225 229 229 230 233 233 233 233 232 234 233 233 234 233 233 233 233 235 234 234 236 234 232 229 227 227 226 227 229
198 157 288 244 219 278 253 214 233 219 182 179 193 240 198 188 271 270 236 228 240 248 244 266 272 269 272 275 278 283 276 265 261 257 257 260 264 263 258 260 266 260 252 246 245 248 232 220 221 225 226 230 229 223 225 232 231 229 232 231 229 231 233 234 233 232 233 233 234 235 234 235 235 234 236 237 238 240 240 239 240 237 237 236 236 236
196 159 260 280 245 295 307 153 201 303 251 222 221 245 212 216 260 280 282 287 256 231 213 227 259 263 268 272 275 279 279 272 264 263 265 262 262 265 257 252 255 252 245 244 241 241 235 226 229 231 228 228 226 222 225 229 229 228 233 235 233 230 230 230 232 232 233 233 234 235 236 238 239 237 236 237 239 242 243 245 246 246 246 247 247 249
217 176 182 258 304 17 294 225 130 153 254 242 227 235 248 259 263 242 249 273 265 247 234 235 253 259 260 267 271 273 276 274 265 263 267 263 258 260 257 249 247 245 241 244 247 246 238 225 230 235 232 230 227 224 225 229 230 227 229 235 235 232 230 230 231 233 233 233 232 233 236 239 241 241 240 239 240 242 244 246 248 249 250 251 251 252
230 208 190 214 311 10 257 253 242 212 221 225 205 211 213 213 223 224 215 223 220 241 261 247 254 265 263 265 267 267 268 267 264 263 263 263 258 254 254 251 248 248 245 241 247 249 240 224 220 226 229 233 233 228 225 227 229 227 228 235 237 237 236 233 232 231 230 230 230 231 233 235 237 239 241 241 241 242 244 246 248 250 251 253 254 253
234 231 224 211 183 212 246 255 240 230 231 231 227 229 220 213 228 244 236 221 201 210 233 236 252 266 266 267 268 269 272 266 261 261 259 259 258 251 250 248 246 248 247 245 247 247 240 230 224 222 224 232 234 229 227 225 226 229 232 235 235 235 238 234 228 228 229 230 233 233 232 231 232 235 238 240 243 244 244 245 247 250 251 252 254 255
234 219 225 227 216 222 251 281 259 241 239 246 253 265 252 234 237 251 250 243 220 210 218 223 241 255 257 262 265 265 271 271 266 262 254 249 247 244 244 243 241 245 247 249 251 246 243 239 232 227 227 233 233 229 230 228 225 229 231 230 229 235 242 236 224 227 235 236 238 240 239 235 232 232 235 238 242 245 246 246 247 249 251 253 254 254
238 226 223 229 231 234 278 289 285 264 239 246 261 278 267 248 237 244 254 255 244 230 226 225 237 249 250 255 262 263 265 269 272 268 260 249 242 239 241 240 240 242 242 244 244 240 239 236 232 230 227 231 235 234 237 234 228 227 228 228 231 237 243 233 219 229 245 246 243 241 239 239 237 235 236 238 240 242 244 246 248 249 250 252 253 253
244 248 240 228 218 204 221 226 236 245 227 224 229 239 267 266 248 244 250 257 259 254 248 243 247 255 256 256 262 267 267 267 269 268 266 261 249 243 245 244 240 237 234 234 233 229 225 219 220 229 230 236 243 245 250 243 233 230 231 235 238 238 238 233 230 239 248 249 248 242 234 233 233 236 240 242 243 245 246 247 246 248 251 251 252 254
246 253 256 242 223 221 228 223 227 244 244 232 224 225 253 268 254 240 241 252 258 255 254 253 252 258 263 264 264 267 269 268 268 272 273 267 256 248 247 247 245 237 231 233 239 239 233 224 222 229 231 240 249 252 256 253 241 236 237 241 244 242 240 238 239 242 243 244 246 241 233 229 231 240 244 241 241 243 244 244 244 247 250 249 249 252
244 246 247 245 238 237 242 237 236 247 251 247 240 231 233 244 253 248 243 247 251 254 258 258 257 261 266 270 270 268 269 267 265 271 278 274 262 253 248 249 250 244 237 237 242 247 245 241 244 244 238 241 248 251 255 257 252 247 246 245 245 244 242 239 238 240 240 240 239 237 236 235 239 249 250 242 243 242 236 237 245 250 251 250 249 249
242 244 241 239 243 248 247 243 242 247 252 253 252 251 249 255 264 264 257 253 250 254 261 262 263 266 267 271 274 272 271 269 266 268 273 274 270 260 253 253 252 248 244 241 242 249 255 257 258 256 251 249 251 254 258 262 260 254 252 248 244 243 242 239 237 238 239 238 237 236 238 238 242 249 248 245 248 248 241 242 248 247 245 247 249 249
238 239 240 237 238 248 250 245 243 247 254 256 256 258 260 261 265 265 261 258 257 259 264 266 267 269 271 273 275 275 275 272 272 272 269 269 272 267 259 256 253 249 247 244 245 251 258 263 264 261 257 255 256 258 262 266 265 261 259 256 249 245 243 240 238 240 241 240 238 237 239 240 240 242 243 242 242 242 243 248 249 242 239 243 247 248
240 232 237 242 244 255 264 256 249 249 251 257 259 259 260 260 263 266 262 260 262 264 265 267 270 272 274 275 275 277 277 274 273 273 270 269 272 270 260 254 252 250 246 239 239 248 255 260 264 265 261 257 258 261 264 267 269 267 262 256 253 250 247 244 244 245 245 244 240 238 239 240 239 239 239 240 238 236 239 243 243 239 241 249 251 249
244 231 232 241 243 257 272 266 260 255 248 251 259 261 260 259 258 262 263 261 263 264 264 268 272 274 275 275 276 276 276 275 272 270 269 269 269 266 256 249 248 248 247 242 236 240 248 252 256 258 257 256 260 263 265 268 271 273 270 261 255 253 254 252 249 248 249 247 243 240 239 238 238 238 238 238 239 238 239 240 240 239 241 248 252 252
247 229 225 228 224 241 288 274 254 255 252 247 251 256 261 262 258 260 265 264 260 261 264 267 270 274 276 276 277 276 274 274 270 267 265 263 261 258 250 245 244 243 245 245 240 239 242 242 243 247 249 252 258 262 266 270 273 275 277 274 267 262 262 262 257 252 252 249 243 240 239 240 239 239 239 239 239 240 240 240 242 243 243 242 245 249
274 244 222 224 222 205 235 264 251 252 256 246 244 255 266 268 263 263 264 261 257 258 261 263 267 273 276 276 277 278 275 271 267 265 262 257 254 251 244 241 240 238 239 242 241 240 240 238 237 240 242 244 251 256 260 265 268 271 274 278 276 271 268 266 263 262 263 257 245 238 237 239 241 241 241 240 240 241 242 242 244 246 247 244 243 245
267 248 219 226 230 202 194 250 262 258 256 252 250 257 263 265 265 266 265 261 260 262 263 265 270 273 274 277 280 281 279 272 265 261 260 255 251 247 242 238 237 235 234 236 236 234 234 237 239 235 232 232 236 241 247 253 260 267 270 273 277 277 274 270 267 267 271 271 256 239 233 235 238 241 243 243 242 242 243 244 245 247 248 248 247 247
233 228 220 229 228 209 206 230 252 260 262 260 255 252 257 264 267 266 267 264 264 267 268 268 271 273 275 280 282 283 282 274 262 255 254 254 250 246 240 236 235 233 231 232 233 232 232 235 235 230 225 225 228 232 239 247 252 257 262 266 269 274 275 272 270 271 273 279 273 246 233 233 237 241 245 248 247 246 245 245 246 246 247 249 249 250
240 224 226 232 224 219 223 229 239 262 273 269 261 257 258 263 263 262 265 266 266 267 269 271 272 275 278 281 282 284 282 273 261 252 248 248 247 244 240 237 236 233 230 230 231 231 232 231 229 226 222 221 224 227 232 242 248 249 255 266 270 274 274 270 272 276 276 279 282 257 236 234 239 244 248 251 252 251 248 246 245 245 246 249 250 250
250 228 223 224 218 221 232 235 237 249 261 262 263 264 257 256 261 263 264 266 268 267 267 271 274 277 282 286 287 288 286 278 269 257 250 246 244 242 239 239 238 232 229 229 229 231 232 227 223 220 216 216 222 225 227 235 245 246 249 260 270 278 280 277 277 282 279 275 275 265 244 236 238 242 245 248 252 254 253 250 248 248 250 254 254 251
241 236 236 227 216 219 234 240 238 240 245 249 255 262 262 260 263 265 265 265 268 269 271 273 275 279 285 290 292 292 291 287 277 263 255 251 247 243 239 238 240 236 231 229 228 229 227 218 211 208 211 217 223 226 227 235 242 244 247 249 251 256 263 262 247 249 261 264 264 265 258 246 241 239 238 241 248 255 258 256 254 253 255 256 255 250
228 232 246 235 222 225 234 238 239 244 248 249 251 257 263 264 263 264 265 264 264 267 273 276 277 280 285 289 291 292 292 290 281 268 261 256 251 248 242 240 243 242 238 235 227 218 211 203 199 202 210 217 223 226 231 240 245 248 251 251 252 255 260 261 245 236 247 256 259 264 265 262 259 253 248 255 266 270 270 267 263 259 255 254 253 252
235 238 250 240 227 230 237 240 241 247 253 257 259 260 261 263 262 262 263 264 264 265 270 275 279 282 286 289 291 293 295 293 283 272 267 262 257 255 251 247 248 246 243 240 230 213 198 191 193 204 215 221 226 230 234 239 243 247 252 254 257 260 264 271 273 263 259 260 262 266 266 265 266 263 261 270 282 285 285 285 283 276 265 256 253 253
251 256 256 245 231 229 234 239 244 251 254 254 255 257 258 261 264 264 263 264 264 265 267 272 277 283 287 288 290 295 297 294 284 274 268 264 261 260 259 256 252 249 244 239 234 227 217 205 201 208 216 219 220 224 229 235 238 239 244 252 258 261 261 265 269 270 270 268 266 266 264 264 266 267 268 275 282 287 289 290 291 290 286 276 263 255
248 252 252 248 238 234 236 237 237 247 252 251 249 253 256 259 264 266 266 265 266 269 272 273 276 282 287 288 292 298 298 291 284 277 270 266 262 259 259 258 254 250 247 241 239 245 249 239 222 212 209 210 214 221 228 235 238 240 244 248 254 258 259 259 261 262 263 265 267 268 268 267 269 271 274 278 281 284 286 287 288 289 288 288 283 271
236 237 238 235 228 230 236 235 231 237 247 252 253 255 257 260 263 263 264 265 267 270 273 276 281 286 288 289 293 298 297 292 289 283 273 265 259 255 253 254 251 247 245 242 240 243 247 240 227 216 210 210 216 225 231 238 242 244 247 249 252 256 257 257 257 257 257 259 262 264 267 269 270 272 274 276 279 281 282 282 284 285 285 288 288 284
234 234 234 233 225 221 230 235 234 237 246 254 256 258 261 263 263 262 262 263 264 266 270 275 282 286 288 288 292 296 299 297 292 284 275 266 259 254 250 249 248 243 239 236 232 231 232 229 223 220 219 219 223 229 235 241 246 248 249 250 251 253 254 253 254 255 256 258 259 260 261 264 267 268 269 271 273 275 278 279 279 281 282 284 286 286
234 233 235 240 240 239 243 246 242 242 249 254 255 256 258 260 261 261 261 261 263 266 270 272 276 281 286 288 291 294 296 294 289 283 278 271 263 256 250 248 245 240 235 232 229 227 225 223 222 225 229 229 229 232 237 242 247 251 251 251 251 252 251 250 251 252 254 256 258 259 260 261 263 265 267 269 270 270 273 274 275 276 277 277 280 282
232 232 234 239 242 244 246 247 245 246 251 254 255 256 257 259 259 260 261 261 263 267 271 273 273 274 276 279 282 286 288 289 290 288 283 278 272 264 256 249 245 241 234 230 229 229 228 228 229 232 234 234 234 235 239 243 247 250 251 253 253 252 250 249 250 251 252 254 256 257 259 260 263 265 267 268 270 271 272 273 273 274 274 274 275 276
237 237 237 238 240 243 246 246 247 249 253 255 257 258 258 260 261 263 264 264 265 268 273 276 277 276 274 273 275 279 285 289 291 288 283 278 274 271 266 257 250 246 239 232 229 228 228 230 232 235 236 237 238 239 241 243 246 249 252 255 256 255 252 250 250 251 253 255 256 256 258 260 262 265 268 270 272 272 273 274 275 275 275 274 273 272
237 239 238 238 241 246 249 249 248 250 254 257 258 258 258 259 262 265 265 264 266 269 272 273 276 278 278 276 275 278 282 286 288 285 279 273 268 267 268 265 258 253 248 241 235 232 229 229 230 232 233 235 238 240 242 245 247 249 251 254 256 257 255 252 252 253 254 257 259 259 260 261 262 265 269 271 274 275 276 277 277 277 276 276 273 271
238 238 239 241 245 251 254 251 248 249 252 254 256 257 258 258 260 262 262 261 263 265 267 268 271 274 276 276 275 275 275 275 278 279 275 270 265 262 262 263 261 257 253 248 243 239 237 234 232 232 233 234 237 242 245 248 250 249 249 250 253 256 257 256 255 256 257 258 261 262 263 264 265 266 269 271 273 275 277 278 278 278 278 278 278 276
242 242 243 243 244 249 252 251 250 250 251 253 256 257 257 257 257 259 258 257 258 259 261 263 266 269 272 271 268 268 268 268 270 272 272 269 265 259 256 256 257 256 253 250 246 242 240 239 237 237 237 237 239 243 248 250 251 249 247 247 249 253 257 259 259 258 258 259 261 263 265 267 267 268 270 271 273 274 276 277 278 279 280 280 281 281